Year,Month,Day,Hour,Minute,Value (Times are PST for windgust in km/hr)
2012,12,04,00,00,25.70
2012,12,04,00,01,16.10
2012,12,04,00,02,17.70
2012,12,04,00,03,22.50
2012,12,04,00,04,20.90
2012,12,04,00,05,12.90
2012,12,04,00,06,22.50
2012,12,04,00,07,32.20
2012,12,04,00,08,22.50
2012,12,04,00,09,30.60
2012,12,04,00,10,19.30
2012,12,04,00,11,22.50
2012,12,04,00,12,24.20
2012,12,04,00,13,16.10
2012,12,04,00,14,17.70
2012,12,04,00,15,22.50
2012,12,04,00,16,24.20
2012,12,04,00,17,24.20
2012,12,04,00,18,25.70
2012,12,04,00,19,16.10
2012,12,04,00,20,20.90
2012,12,04,00,21,22.50
2012,12,04,00,22,20.90
2012,12,04,00,23,30.60
2012,12,04,00,24,24.20
2012,12,04,00,25,22.50
2012,12,04,00,26,19.30
2012,12,04,00,27,25.70
2012,12,04,00,28,35.40
2012,12,04,00,29,19.30
2012,12,04,00,30,30.60
2012,12,04,00,31,25.70
2012,12,04,00,32,17.70
2012,12,04,00,33,27.40
2012,12,04,00,34,29.00
2012,12,04,00,35,29.00
2012,12,04,00,36,22.50
2012,12,04,00,37,17.70
2012,12,04,00,38,14.50
2012,12,04,00,39,25.70
2012,12,04,00,40,24.20
2012,12,04,00,41,17.70
2012,12,04,00,42,24.20
2012,12,04,00,43,22.50
2012,12,04,00,44,17.70
2012,12,04,00,45,19.30
2012,12,04,00,46,17.70
2012,12,04,00,47,19.30
2012,12,04,00,48,16.10
2012,12,04,00,49,19.30
2012,12,04,00,50,22.50
2012,12,04,00,51,24.20
2012,12,04,00,52,24.20
2012,12,04,00,53,24.20
2012,12,04,00,54,24.20
2012,12,04,00,55,17.70
2012,12,04,00,56,25.70
2012,12,04,00,57,33.80
2012,12,04,00,58,22.50
2012,12,04,00,59,32.20
2012,12,04,01,00,27.40
2012,12,04,01,01,20.90
2012,12,04,01,02,17.70
2012,12,04,01,03,25.70
2012,12,04,01,04,27.40
2012,12,04,01,05,25.70
2012,12,04,01,06,25.70
2012,12,04,01,07,16.10
2012,12,04,01,08,25.70
2012,12,04,01,09,24.20
2012,12,04,01,10,22.50
2012,12,04,01,11,37.00
2012,12,04,01,12,24.20
2012,12,04,01,13,22.50
2012,12,04,01,14,29.00
2012,12,04,01,15,20.90
2012,12,04,01,16,25.70
2012,12,04,01,17,27.40
2012,12,04,01,18,30.60
2012,12,04,01,19,22.50
2012,12,04,01,20,27.40
2012,12,04,01,21,37.00
2012,12,04,01,22,19.30
2012,12,04,01,23,32.20
2012,12,04,01,24,25.70
2012,12,04,01,25,29.00
2012,12,04,01,26,27.40
2012,12,04,01,27,25.70
2012,12,04,01,28,25.70
2012,12,04,01,29,32.20
2012,12,04,01,30,32.20
2012,12,04,01,31,37.00
2012,12,04,01,32,30.60
2012,12,04,01,33,22.50
2012,12,04,01,34,17.70
2012,12,04,01,35,25.70
2012,12,04,01,36,30.60
2012,12,04,01,37,29.00
2012,12,04,01,38,27.40
2012,12,04,01,39,32.20
2012,12,04,01,40,22.50
2012,12,04,01,41,25.70
2012,12,04,01,42,30.60
2012,12,04,01,43,27.40
2012,12,04,01,44,19.30
2012,12,04,01,45,29.00
2012,12,04,01,46,25.70
2012,12,04,01,47,16.10
2012,12,04,01,48,27.40
2012,12,04,01,49,16.10
2012,12,04,01,50,25.70
2012,12,04,01,51,20.90
2012,12,04,01,52,25.70
2012,12,04,01,53,20.90
2012,12,04,01,54,16.10
2012,12,04,01,55,38.60
2012,12,04,01,56,29.00
2012,12,04,01,57,35.40
2012,12,04,01,58,27.40
2012,12,04,01,59,29.00
2012,12,04,02,00,22.50
2012,12,04,02,01,22.50
2012,12,04,02,02,19.30
2012,12,04,02,03,27.40
2012,12,04,02,04,25.70
2012,12,04,02,05,25.70
2012,12,04,02,06,29.00
2012,12,04,02,07,30.60
2012,12,04,02,08,25.70
2012,12,04,02,09,35.40
2012,12,04,02,10,25.70
2012,12,04,02,11,20.90
2012,12,04,02,12,27.40
2012,12,04,02,13,22.50
2012,12,04,02,14,25.70
2012,12,04,02,15,24.20
2012,12,04,02,16,20.90
2012,12,04,02,17,22.50
2012,12,04,02,18,22.50
2012,12,04,02,19,29.00
2012,12,04,02,20,25.70
2012,12,04,02,21,29.00
2012,12,04,02,22,30.60
2012,12,04,02,23,27.40
2012,12,04,02,24,24.20
2012,12,04,02,25,25.70
2012,12,04,02,26,27.40
2012,12,04,02,27,17.70
2012,12,04,02,28,25.70
2012,12,04,02,29,24.20
2012,12,04,02,30,17.70
2012,12,04,02,31,35.40
2012,12,04,02,32,25.70
2012,12,04,02,33,27.40
2012,12,04,02,34,29.00
2012,12,04,02,35,24.20
2012,12,04,02,36,30.60
2012,12,04,02,37,20.90
2012,12,04,02,38,27.40
2012,12,04,02,39,27.40
2012,12,04,02,40,29.00
2012,12,04,02,41,19.30
2012,12,04,02,42,25.70
2012,12,04,02,43,29.00
2012,12,04,02,44,29.00
2012,12,04,02,45,24.20
2012,12,04,02,46,19.30
2012,12,04,02,47,35.40
2012,12,04,02,48,27.40
2012,12,04,02,49,30.60
2012,12,04,02,50,24.20
2012,12,04,02,51,27.40
2012,12,04,02,52,30.60
2012,12,04,02,53,27.40
2012,12,04,02,54,30.60
2012,12,04,02,55,37.00
2012,12,04,02,56,37.00
2012,12,04,02,57,27.40
2012,12,04,02,58,32.20
2012,12,04,02,59,25.70
2012,12,04,03,00,24.20
2012,12,04,03,01,32.20
2012,12,04,03,02,32.20
2012,12,04,03,03,38.60
2012,12,04,03,04,27.40
2012,12,04,03,05,24.20
2012,12,04,03,06,29.00
2012,12,04,03,07,38.60
2012,12,04,03,08,32.20
2012,12,04,03,09,25.70
2012,12,04,03,10,38.60
2012,12,04,03,11,25.70
2012,12,04,03,12,35.40
2012,12,04,03,13,38.60
2012,12,04,03,14,29.00
2012,12,04,03,15,32.20
2012,12,04,03,16,35.40
2012,12,04,03,17,35.40
2012,12,04,03,18,37.00
2012,12,04,03,19,27.40
2012,12,04,03,20,41.80
2012,12,04,03,21,35.40
2012,12,04,03,22,35.40
2012,12,04,03,23,33.80
2012,12,04,03,24,35.40
2012,12,04,03,25,35.40
2012,12,04,03,26,32.20
2012,12,04,03,27,38.60
2012,12,04,03,28,38.60
2012,12,04,03,29,41.80
2012,12,04,03,30,35.40
2012,12,04,03,31,48.30
2012,12,04,03,32,32.20
2012,12,04,03,33,30.60
2012,12,04,03,34,41.80
2012,12,04,03,35,29.00
2012,12,04,03,36,49.90
2012,12,04,03,37,38.60
2012,12,04,03,38,45.10
2012,12,04,03,39,29.00
2012,12,04,03,40,27.40
2012,12,04,03,41,40.20
2012,12,04,03,42,37.00
2012,12,04,03,43,40.20
2012,12,04,03,44,35.40
2012,12,04,03,45,46.70
2012,12,04,03,46,40.20
2012,12,04,03,47,29.00
2012,12,04,03,48,43.50
2012,12,04,03,49,38.60
2012,12,04,03,50,41.80
2012,12,04,03,51,41.80
2012,12,04,03,52,37.00
2012,12,04,03,53,33.80
2012,12,04,03,54,45.10
2012,12,04,03,55,33.80
2012,12,04,03,56,24.20
2012,12,04,03,57,32.20
2012,12,04,03,58,40.20
2012,12,04,03,59,25.70
2012,12,04,04,00,30.60
2012,12,04,04,01,35.40
2012,12,04,04,02,37.00
2012,12,04,04,03,20.90
2012,12,04,04,04,29.00
2012,12,04,04,05,38.60
2012,12,04,04,06,27.40
2012,12,04,04,07,25.70
2012,12,04,04,08,27.40
2012,12,04,04,09,35.40
2012,12,04,04,10,30.60
2012,12,04,04,11,14.50
2012,12,04,04,12,25.70
2012,12,04,04,13,38.60
2012,12,04,04,14,43.50
2012,12,04,04,15,37.00
2012,12,04,04,16,48.30
2012,12,04,04,17,37.00
2012,12,04,04,18,35.40
2012,12,04,04,19,33.80
2012,12,04,04,20,33.80
2012,12,04,04,21,22.50
2012,12,04,04,22,25.70
2012,12,04,04,23,25.70
2012,12,04,04,24,53.10
2012,12,04,04,25,41.80
2012,12,04,04,26,38.60
2012,12,04,04,27,35.40
2012,12,04,04,28,40.20
2012,12,04,04,29,38.60
2012,12,04,04,30,29.00
2012,12,04,04,31,45.10
2012,12,04,04,32,37.00
2012,12,04,04,33,46.70
2012,12,04,04,34,22.50
2012,12,04,04,35,37.00
2012,12,04,04,36,38.60
2012,12,04,04,37,41.80
2012,12,04,04,38,30.60
2012,12,04,04,39,37.00
2012,12,04,04,40,32.20
2012,12,04,04,41,38.60
2012,12,04,04,42,37.00
2012,12,04,04,43,27.40
2012,12,04,04,44,40.20
2012,12,04,04,45,37.00
2012,12,04,04,46,48.30
2012,12,04,04,47,38.60
2012,12,04,04,48,33.80
2012,12,04,04,49,25.70
2012,12,04,04,50,35.40
2012,12,04,04,51,33.80
2012,12,04,04,52,29.00
2012,12,04,04,53,43.50
2012,12,04,04,54,33.80
2012,12,04,04,55,32.20
2012,12,04,04,56,29.00
2012,12,04,04,57,25.70
2012,12,04,04,58,46.70
2012,12,04,04,59,43.50
2012,12,04,05,00,29.00
2012,12,04,05,01,30.60
2012,12,04,05,02,25.70
2012,12,04,05,03,33.80
2012,12,04,05,04,30.60
2012,12,04,05,05,33.80
2012,12,04,05,06,32.20
2012,12,04,05,07,35.40
2012,12,04,05,08,32.20
2012,12,04,05,09,40.20
2012,12,04,05,10,27.40
2012,12,04,05,11,27.40
2012,12,04,05,12,29.00
2012,12,04,05,13,33.80
2012,12,04,05,14,40.20
2012,12,04,05,15,16.10
2012,12,04,05,16,27.40
2012,12,04,05,17,33.80
2012,12,04,05,18,27.40
2012,12,04,05,19,27.40
2012,12,04,05,20,19.30
2012,12,04,05,21,20.90
2012,12,04,05,22,32.20
2012,12,04,05,23,40.20
2012,12,04,05,24,29.00
2012,12,04,05,25,19.30
2012,12,04,05,26,24.20
2012,12,04,05,27,29.00
2012,12,04,05,28,25.70
2012,12,04,05,29,25.70
2012,12,04,05,30,35.40
2012,12,04,05,31,25.70
2012,12,04,05,32,29.00
2012,12,04,05,33,20.90
2012,12,04,05,34,22.50
2012,12,04,05,35,24.20
2012,12,04,05,36,24.20
2012,12,04,05,37,25.70
2012,12,04,05,38,17.70
2012,12,04,05,39,22.50
2012,12,04,05,40,17.70
2012,12,04,05,41,22.50
2012,12,04,05,42,30.60
2012,12,04,05,43,25.70
2012,12,04,05,44,24.20
2012,12,04,05,45,27.40
2012,12,04,05,46,16.10
2012,12,04,05,47,29.00
2012,12,04,05,48,16.10
2012,12,04,05,49,25.70
2012,12,04,05,50,25.70
2012,12,04,05,51,16.10
2012,12,04,05,52,16.10
2012,12,04,05,53,22.50
2012,12,04,05,54,17.70
2012,12,04,05,55,22.50
2012,12,04,05,56,22.50
2012,12,04,05,57,22.50
2012,12,04,05,58,20.90
2012,12,04,05,59,27.40
2012,12,04,06,00,22.50
2012,12,04,06,01,17.70
2012,12,04,06,02,11.30
2012,12,04,06,03,19.30
2012,12,04,06,04,6.40
2012,12,04,06,05,19.30
2012,12,04,06,06,6.40
2012,12,04,06,07,11.30
2012,12,04,06,08,17.70
2012,12,04,06,09,19.30
2012,12,04,06,10,11.30
2012,12,04,06,11,14.50
2012,12,04,06,12,14.50
2012,12,04,06,13,9.60
2012,12,04,06,14,14.50
2012,12,04,06,15,16.10
2012,12,04,06,16,14.50
2012,12,04,06,17,14.50
2012,12,04,06,18,17.70
2012,12,04,06,19,17.70
2012,12,04,06,20,14.50
2012,12,04,06,21,9.60
2012,12,04,06,22,17.70
2012,12,04,06,23,19.30
2012,12,04,06,24,19.30
2012,12,04,06,25,16.10
2012,12,04,06,26,9.60
2012,12,04,06,27,20.90
2012,12,04,06,28,11.30
2012,12,04,06,29,14.50
2012,12,04,06,30,14.50
2012,12,04,06,31,14.50
2012,12,04,06,32,17.70
2012,12,04,06,33,19.30
2012,12,04,06,34,14.50
2012,12,04,06,35,19.30
2012,12,04,06,36,20.90
2012,12,04,06,37,11.30
2012,12,04,06,38,11.30
2012,12,04,06,39,14.50
2012,12,04,06,40,16.10
2012,12,04,06,41,17.70
2012,12,04,06,42,25.70
2012,12,04,06,43,14.50
2012,12,04,06,44,14.50
2012,12,04,06,45,11.30
2012,12,04,06,46,8.10
2012,12,04,06,47,16.10
2012,12,04,06,48,22.50
2012,12,04,06,49,6.40
2012,12,04,06,50,4.80
2012,12,04,06,51,4.80
2012,12,04,06,52,8.10
2012,12,04,06,53,8.10
2012,12,04,06,55,11.30
2012,12,04,06,56,8.10
2012,12,04,06,57,12.90
2012,12,04,06,58,14.50
2012,12,04,06,59,14.50
2012,12,04,07,00,16.10
2012,12,04,07,01,22.50
2012,12,04,07,02,30.60
2012,12,04,07,03,29.00
2012,12,04,07,04,16.10
2012,12,04,07,05,17.70
2012,12,04,07,06,24.20
2012,12,04,07,07,17.70
2012,12,04,07,08,30.60
2012,12,04,07,09,20.90
2012,12,04,07,10,20.90
2012,12,04,07,11,22.50
2012,12,04,07,12,22.50
2012,12,04,07,13,22.50
2012,12,04,07,14,24.20
2012,12,04,07,15,19.30
2012,12,04,07,16,16.10
2012,12,04,07,17,17.70
2012,12,04,07,18,17.70
2012,12,04,07,19,19.30
2012,12,04,07,20,22.50
2012,12,04,07,21,20.90
2012,12,04,07,22,16.10
2012,12,04,07,23,32.20
2012,12,04,07,24,25.70
2012,12,04,07,25,25.70
2012,12,04,07,26,17.70
2012,12,04,07,27,14.50
2012,12,04,07,28,16.10
2012,12,04,07,29,17.70
2012,12,04,07,30,27.40
2012,12,04,07,31,40.20
2012,12,04,07,32,35.40
2012,12,04,07,33,30.60
2012,12,04,07,34,22.50
2012,12,04,07,35,24.20
2012,12,04,07,36,24.20
2012,12,04,07,37,29.00
2012,12,04,07,38,29.00
2012,12,04,07,39,17.70
2012,12,04,07,40,17.70
2012,12,04,07,41,22.50
2012,12,04,07,42,17.70
2012,12,04,07,43,24.20
2012,12,04,07,44,17.70
2012,12,04,07,45,22.50
2012,12,04,07,46,20.90
2012,12,04,07,47,33.80
2012,12,04,07,48,27.40
2012,12,04,07,49,37.00
2012,12,04,07,50,40.20
2012,12,04,07,51,29.00
2012,12,04,07,52,35.40
2012,12,04,07,53,33.80
2012,12,04,07,54,30.60
2012,12,04,07,55,29.00
2012,12,04,07,56,32.20
2012,12,04,07,57,24.20
2012,12,04,07,58,19.30
2012,12,04,07,59,17.70
2012,12,04,08,00,37.00
2012,12,04,08,01,37.00
2012,12,04,08,02,24.20
2012,12,04,08,03,45.10
2012,12,04,08,04,37.00
2012,12,04,09,25,16.10
2012,12,04,09,26,32.20
2012,12,04,09,27,33.80
2012,12,04,09,28,29.00
2012,12,04,09,29,35.40
2012,12,04,09,30,27.40
2012,12,04,09,31,29.00
2012,12,04,09,32,30.60
2012,12,04,09,33,22.50
2012,12,04,09,34,45.10
2012,12,04,09,35,53.10
2012,12,04,09,36,37.00
2012,12,04,09,37,64.40
2012,12,04,09,38,48.30
2012,12,04,09,39,33.80
2012,12,04,10,22,40.20
2012,12,04,10,23,29.00
2012,12,04,10,24,27.40
2012,12,04,10,25,24.20
2012,12,04,10,26,30.60
2012,12,04,10,27,33.80
2012,12,04,10,28,33.80
2012,12,04,10,29,24.20
2012,12,04,10,30,24.20
2012,12,04,10,31,27.40
2012,12,04,10,32,24.20
2012,12,04,10,33,29.00
2012,12,04,10,34,29.00
2012,12,04,10,35,25.70
2012,12,04,10,36,29.00
2012,12,04,10,37,30.60
2012,12,04,10,38,27.40
2012,12,04,10,39,20.90
2012,12,04,10,40,30.60
2012,12,04,10,41,24.20
2012,12,04,10,42,32.20
2012,12,04,10,43,33.80
2012,12,04,10,44,17.70
2012,12,04,10,45,19.30
2012,12,04,10,46,24.20
2012,12,04,10,47,27.40
2012,12,04,10,48,33.80
2012,12,04,10,49,25.70
2012,12,04,10,50,25.70
2012,12,04,10,51,29.00
2012,12,04,10,52,32.20
2012,12,04,10,53,32.20
2012,12,04,10,54,25.70
2012,12,04,10,55,27.40
2012,12,04,10,56,19.30
2012,12,04,10,57,20.90
2012,12,04,10,58,20.90
2012,12,04,10,59,20.90
2012,12,04,11,00,9.60
2012,12,04,11,01,8.10
2012,12,04,11,02,19.30
2012,12,04,11,03,41.80
2012,12,04,11,04,32.20
2012,12,04,11,05,33.80
2012,12,04,11,06,24.20
2012,12,04,11,07,22.50
2012,12,04,11,08,24.20
2012,12,04,11,09,20.90
2012,12,04,11,10,25.70
2012,12,04,11,11,29.00
2012,12,04,11,12,22.50
2012,12,04,11,13,20.90
2012,12,04,11,14,29.00
2012,12,04,11,15,29.00
2012,12,04,11,16,32.20
2012,12,04,11,17,25.70
2012,12,04,11,18,27.40
2012,12,04,11,19,30.60
2012,12,04,11,20,20.90
2012,12,04,11,21,25.70
2012,12,04,11,22,29.00
2012,12,04,11,23,40.20
2012,12,04,11,24,43.50
2012,12,04,11,25,30.60
2012,12,04,11,26,30.60
2012,12,04,11,27,17.70
2012,12,04,11,28,29.00
2012,12,04,11,29,19.30
2012,12,04,11,30,6.40
2012,12,04,11,31,33.80
2012,12,04,11,32,33.80
2012,12,04,11,33,16.10
2012,12,04,11,34,24.20
2012,12,04,11,35,32.20
2012,12,04,11,36,22.50
2012,12,04,11,37,22.50
2012,12,04,11,38,32.20
2012,12,04,11,39,32.20
2012,12,04,11,40,33.80
2012,12,04,11,41,38.60
2012,12,04,11,42,32.20
2012,12,04,11,43,16.10
2012,12,04,11,44,24.20
2012,12,04,11,45,25.70
2012,12,04,11,46,30.60
2012,12,04,11,47,27.40
2012,12,04,11,48,19.30
2012,12,04,11,49,14.50
2012,12,04,11,50,20.90
2012,12,04,11,51,9.60
2012,12,04,11,52,12.90
2012,12,04,11,53,20.90
2012,12,04,11,54,30.60
2012,12,04,11,55,17.70
2012,12,04,11,56,11.30
2012,12,04,11,57,17.70
2012,12,04,11,58,17.70
2012,12,04,11,59,17.70
2012,12,04,12,00,9.60
2012,12,04,12,01,20.90
2012,12,04,12,02,9.60
2012,12,04,12,03,8.10
2012,12,04,12,04,14.50
2012,12,04,12,05,8.10
2012,12,04,12,06,6.40
2012,12,04,12,07,19.30
2012,12,04,12,08,11.30
2012,12,04,12,09,19.30
2012,12,04,12,10,16.10
2012,12,04,12,11,30.60
2012,12,04,12,12,12.90
2012,12,04,12,13,35.40
2012,12,04,12,14,30.60
2012,12,04,12,15,24.20
2012,12,04,12,16,17.70
2012,12,04,12,17,16.10
2012,12,04,12,18,8.10
2012,12,04,12,19,19.30
2012,12,04,12,20,17.70
2012,12,04,12,21,27.40
2012,12,04,12,22,17.70
2012,12,04,12,23,17.70
2012,12,04,12,24,16.10
2012,12,04,12,25,8.10
2012,12,04,12,26,9.60
2012,12,04,12,27,22.50
2012,12,04,12,28,20.90
2012,12,04,12,29,16.10
2012,12,04,12,30,27.40
2012,12,04,12,31,9.60
2012,12,04,12,32,8.10
2012,12,04,12,33,38.60
2012,12,04,12,34,40.20
2012,12,04,12,35,17.70
2012,12,04,12,36,22.50
2012,12,04,12,37,29.00
2012,12,04,12,38,27.40
2012,12,04,12,39,33.80
2012,12,04,12,40,24.20
2012,12,04,12,41,25.70
2012,12,04,12,42,24.20
2012,12,04,12,43,27.40
2012,12,04,12,44,27.40
2012,12,04,12,45,29.00
2012,12,04,12,46,24.20
2012,12,04,12,47,30.60
2012,12,04,12,48,24.20
2012,12,04,12,49,20.90
2012,12,04,12,50,40.20
2012,12,04,12,51,24.20
2012,12,04,12,52,14.50
2012,12,04,12,53,19.30
2012,12,04,12,54,22.50
2012,12,04,12,55,20.90
2012,12,04,12,56,20.90
2012,12,04,12,57,11.30
2012,12,04,12,58,25.70
2012,12,04,12,59,43.50
2012,12,04,13,00,22.50
2012,12,04,13,01,40.20
2012,12,04,13,02,19.30
2012,12,04,13,03,29.00
2012,12,04,13,04,27.40
2012,12,04,13,05,27.40
2012,12,04,13,06,22.50
2012,12,04,13,07,29.00
2012,12,04,13,08,30.60
2012,12,04,13,09,35.40
2012,12,04,13,10,20.90
2012,12,04,13,11,33.80
2012,12,04,13,12,32.20
2012,12,04,13,13,29.00
2012,12,04,13,14,22.50
2012,12,04,13,15,29.00
2012,12,04,13,16,24.20
2012,12,04,13,17,24.20
2012,12,04,13,18,37.00
2012,12,04,13,19,29.00
2012,12,04,13,20,20.90
2012,12,04,13,21,19.30
2012,12,04,13,22,29.00
2012,12,04,13,23,24.20
2012,12,04,13,24,19.30
2012,12,04,13,25,17.70
2012,12,04,13,26,20.90
2012,12,04,13,27,27.40
2012,12,04,13,28,27.40
2012,12,04,13,29,6.40
2012,12,04,13,30,6.40
2012,12,04,13,31,9.60
2012,12,04,13,32,25.70
2012,12,04,13,33,19.30
2012,12,04,13,34,16.10
2012,12,04,13,35,14.50
2012,12,04,13,36,11.30
2012,12,04,13,37,11.30
2012,12,04,13,38,8.10
2012,12,04,13,39,16.10
2012,12,04,13,40,16.10
2012,12,04,13,41,11.30
2012,12,04,13,42,24.20
2012,12,04,13,43,17.70
2012,12,04,13,44,19.30
2012,12,04,13,45,17.70
2012,12,04,13,46,12.90
2012,12,04,13,47,19.30
2012,12,04,13,48,17.70
2012,12,04,13,49,9.60
2012,12,04,13,50,11.30
2012,12,04,13,51,16.10
2012,12,04,13,52,14.50
2012,12,04,13,53,11.30
2012,12,04,13,54,11.30
2012,12,04,13,55,16.10
2012,12,04,13,56,24.20
2012,12,04,13,57,19.30
2012,12,04,13,58,11.30
2012,12,04,13,59,11.30
2012,12,04,14,00,20.90
2012,12,04,14,01,20.90
2012,12,04,14,02,9.60
2012,12,04,14,03,16.10
2012,12,04,14,04,9.60
2012,12,04,14,05,16.10
2012,12,04,14,06,6.40
2012,12,04,14,07,9.60
2012,12,04,14,08,12.90
2012,12,04,14,09,9.60
2012,12,04,14,10,6.40
2012,12,04,14,11,3.20
2012,12,04,14,12,6.40
2012,12,04,14,13,4.80
2012,12,04,14,14,6.40
2012,12,04,14,15,12.90
2012,12,04,14,16,11.30
2012,12,04,14,17,6.40
2012,12,04,14,18,8.10
2012,12,04,14,19,8.10
2012,12,04,14,20,8.10
2012,12,04,14,21,9.60
2012,12,04,14,22,11.30
2012,12,04,14,23,9.60
2012,12,04,14,24,4.80
2012,12,04,14,25,14.50
2012,12,04,14,26,16.10
2012,12,04,14,27,9.60
2012,12,04,14,28,9.60
2012,12,04,14,29,17.70
2012,12,04,14,30,19.30
2012,12,04,14,31,16.10
2012,12,04,14,32,17.70
2012,12,04,14,33,20.90
2012,12,04,14,34,14.50
2012,12,04,14,35,16.10
2012,12,04,14,36,14.50
2012,12,04,14,37,20.90
2012,12,04,14,38,14.50
2012,12,04,14,39,17.70
2012,12,04,14,40,11.30
2012,12,04,14,41,17.70
2012,12,04,14,42,8.10
2012,12,04,14,43,9.60
2012,12,04,14,44,9.60
2012,12,04,14,45,11.30
2012,12,04,14,46,6.40
2012,12,04,14,47,9.60
2012,12,04,14,48,4.80
2012,12,04,14,49,4.80
2012,12,04,14,50,1.60
2012,12,04,14,51,9.60
2012,12,04,14,52,11.30
2012,12,04,14,53,6.40
2012,12,04,14,54,3.20
2012,12,04,14,55,6.40
2012,12,04,14,56,8.10
2012,12,04,14,57,9.60
2012,12,04,14,58,6.40
2012,12,04,14,59,3.20
2012,12,04,15,00,1.60
2012,12,04,15,01,4.80
2012,12,04,15,03,3.20
2012,12,04,15,04,3.20
2012,12,04,15,06,1.60
2012,12,04,15,07,6.40
2012,12,04,15,08,1.60
2012,12,04,15,10,1.60
2012,12,04,15,11,1.60
2012,12,04,15,12,4.80
2012,12,04,15,13,4.80
2012,12,04,15,14,4.80
2012,12,04,15,15,3.20
2012,12,04,15,16,8.10
2012,12,04,15,17,8.10
2012,12,04,15,18,4.80
2012,12,04,15,19,4.80
2012,12,04,15,20,1.60
2012,12,04,15,21,1.60
2012,12,04,15,22,4.80
2012,12,04,15,23,3.20
2012,12,04,15,24,6.40
2012,12,04,15,25,6.40
2012,12,04,15,26,4.80
2012,12,04,15,27,6.40
2012,12,04,15,28,4.80
2012,12,04,15,29,3.20
2012,12,04,15,34,1.60
2012,12,04,15,37,3.20
2012,12,04,15,38,3.20
2012,12,04,15,39,3.20
2012,12,04,15,41,3.20
2012,12,04,15,42,3.20
2012,12,04,15,46,6.40
2012,12,04,15,47,6.40
2012,12,04,15,48,6.40
2012,12,04,15,49,11.30
2012,12,04,15,50,11.30
2012,12,04,15,51,17.70
2012,12,04,15,52,16.10
2012,12,04,15,53,6.40
2012,12,04,15,54,11.30
2012,12,04,15,55,20.90
2012,12,04,15,56,19.30
2012,12,04,15,57,17.70
2012,12,04,15,58,14.50
2012,12,04,15,59,8.10
2012,12,04,16,00,17.70
2012,12,04,16,01,8.10
2012,12,04,16,02,22.50
2012,12,04,16,03,20.90
2012,12,04,16,04,16.10
2012,12,04,16,05,24.20
2012,12,04,16,06,14.50
2012,12,04,16,07,16.10
2012,12,04,16,08,9.60
2012,12,04,16,09,8.10
2012,12,04,16,10,9.60
2012,12,04,16,11,11.30
2012,12,04,16,12,9.60
2012,12,04,16,13,6.40
2012,12,04,16,14,8.10
2012,12,04,16,15,1.60
2012,12,04,16,16,4.80
2012,12,04,16,17,4.80
2012,12,04,16,18,9.60
2012,12,04,16,19,4.80
2012,12,04,16,20,6.40
2012,12,04,16,21,6.40
2012,12,04,16,22,8.10
2012,12,04,16,23,3.20
2012,12,04,16,24,6.40
2012,12,04,16,25,4.80
2012,12,04,16,26,3.20
2012,12,04,16,27,6.40
2012,12,04,16,29,3.20
2012,12,04,16,30,3.20
2012,12,04,16,31,4.80
2012,12,04,16,32,8.10
2012,12,04,16,33,9.60
2012,12,04,16,34,9.60
2012,12,04,16,35,8.10
2012,12,04,16,36,1.60
2012,12,04,16,37,6.40
2012,12,04,16,38,6.40
2012,12,04,16,39,8.10
2012,12,04,16,40,8.10
2012,12,04,16,41,4.80
2012,12,04,16,42,3.20
2012,12,04,16,45,1.60
2012,12,04,16,51,1.60
2012,12,04,16,52,3.20
2012,12,04,16,53,3.20
2012,12,04,16,54,8.10
2012,12,04,16,55,4.80
2012,12,04,16,56,3.20
2012,12,04,16,57,4.80
2012,12,04,16,58,3.20
2012,12,04,16,59,1.60
2012,12,04,17,00,3.20
2012,12,04,17,01,4.80
2012,12,04,17,02,6.40
2012,12,04,17,03,8.10
2012,12,04,17,04,9.60
2012,12,04,17,05,6.40
2012,12,04,17,06,6.40
2012,12,04,17,07,11.30
2012,12,04,17,08,9.60
2012,12,04,17,09,3.20
2012,12,04,17,10,8.10
2012,12,04,17,11,4.80
2012,12,04,17,12,4.80
2012,12,04,17,13,9.60
2012,12,04,17,14,4.80
2012,12,04,17,15,1.60
2012,12,04,17,16,6.40
2012,12,04,17,17,4.80
2012,12,04,17,19,1.60
2012,12,04,17,22,8.10
2012,12,04,17,23,8.10
2012,12,04,17,24,4.80
2012,12,04,17,25,1.60
2012,12,04,17,26,4.80
2012,12,04,17,27,3.20
2012,12,04,17,28,6.40
2012,12,04,17,29,3.20
2012,12,04,17,30,1.60
2012,12,04,17,33,8.10
2012,12,04,17,34,6.40
2012,12,04,17,35,4.80
2012,12,04,17,36,8.10
2012,12,04,17,37,11.30
2012,12,04,17,38,9.60
2012,12,04,17,39,11.30
2012,12,04,17,40,6.40
2012,12,04,17,41,6.40
2012,12,04,17,42,9.60
2012,12,04,17,43,1.60
2012,12,04,17,44,8.10
2012,12,04,17,45,9.60
2012,12,04,17,46,8.10
2012,12,04,17,47,1.60
2012,12,04,17,48,4.80
2012,12,04,17,49,1.60
2012,12,04,17,50,1.60
2012,12,04,17,52,6.40
2012,12,04,17,53,6.40
2012,12,04,17,54,4.80
2012,12,04,17,55,3.20
2012,12,04,17,56,6.40
2012,12,04,17,57,6.40
2012,12,04,17,58,4.80
2012,12,04,17,59,4.80
2012,12,04,18,00,4.80
2012,12,04,18,01,3.20
2012,12,04,18,02,6.40
2012,12,04,18,03,8.10
2012,12,04,18,04,9.60
2012,12,04,18,05,11.30
2012,12,04,18,06,6.40
2012,12,04,18,07,4.80
2012,12,04,18,08,6.40
2012,12,04,18,09,11.30
2012,12,04,18,10,17.70
2012,12,04,18,11,8.10
2012,12,04,18,12,9.60
2012,12,04,18,13,12.90
2012,12,04,18,14,6.40
2012,12,04,18,15,11.30
2012,12,04,18,16,11.30
2012,12,04,18,17,9.60
2012,12,04,18,18,9.60
2012,12,04,18,19,16.10
2012,12,04,18,20,16.10
2012,12,04,18,21,16.10
2012,12,04,18,22,16.10
2012,12,04,18,23,16.10
2012,12,04,18,24,14.50
2012,12,04,18,25,22.50
2012,12,04,18,26,20.90
2012,12,04,18,27,20.90
2012,12,04,18,28,19.30
2012,12,04,18,29,17.70
2012,12,04,18,30,22.50
2012,12,04,18,31,16.10
2012,12,04,18,32,22.50
2012,12,04,18,33,19.30
2012,12,04,18,34,25.70
2012,12,04,18,35,17.70
2012,12,04,18,36,22.50
2012,12,04,18,37,20.90
2012,12,04,18,38,25.70
2012,12,04,18,39,17.70
2012,12,04,18,40,22.50
2012,12,04,18,41,14.50
2012,12,04,18,42,19.30
2012,12,04,18,43,22.50
2012,12,04,18,44,11.30
2012,12,04,18,45,20.90
2012,12,04,18,46,14.50
2012,12,04,18,47,11.30
2012,12,04,18,48,14.50
2012,12,04,18,49,6.40
2012,12,04,18,50,11.30
2012,12,04,18,51,16.10
2012,12,04,18,52,14.50
2012,12,04,18,53,11.30
2012,12,04,18,54,4.80
2012,12,04,18,55,8.10
2012,12,04,18,56,4.80
2012,12,04,18,57,6.40
2012,12,04,18,58,6.40
2012,12,04,18,59,1.60
2012,12,04,19,00,3.20
2012,12,04,19,07,1.60
2012,12,04,19,08,3.20
2012,12,04,19,09,3.20
2012,12,04,19,10,3.20
2012,12,04,19,11,3.20
2012,12,04,19,12,3.20
2012,12,04,19,13,4.80
2012,12,04,19,14,4.80
2012,12,04,19,16,1.60
2012,12,04,19,17,3.20
2012,12,04,19,18,1.60
2012,12,04,19,19,3.20
2012,12,04,19,20,1.60
2012,12,04,19,23,1.60
2012,12,04,19,25,4.80
2012,12,04,19,26,4.80
2012,12,04,19,27,3.20
2012,12,04,19,28,3.20
2012,12,04,19,29,1.60
2012,12,04,19,30,3.20
2012,12,04,19,39,1.60
2012,12,04,19,40,1.60
2012,12,04,19,47,1.60
2012,12,04,19,55,3.20
2012,12,04,19,59,1.60
2012,12,04,20,01,1.60
2012,12,04,20,02,1.60
2012,12,04,20,03,1.60
2012,12,04,20,04,1.60
2012,12,04,20,05,3.20
2012,12,04,20,06,1.60
2012,12,04,20,07,3.20
2012,12,04,20,10,3.20
2012,12,04,20,11,4.80
2012,12,04,20,13,3.20
2012,12,04,20,16,3.20
2012,12,04,20,17,1.60
2012,12,04,20,21,8.10
2012,12,04,20,22,3.20
2012,12,04,20,23,3.20
2012,12,04,20,24,1.60
2012,12,04,20,29,3.20
2012,12,04,20,30,1.60
2012,12,04,20,31,3.20
2012,12,04,20,32,3.20
2012,12,04,20,33,4.80
2012,12,04,20,34,4.80
2012,12,04,20,35,4.80
2012,12,04,20,36,4.80
2012,12,04,20,37,3.20
2012,12,04,20,42,1.60
2012,12,04,20,45,1.60
2012,12,04,20,46,3.20
2012,12,04,20,47,3.20
2012,12,04,20,48,3.20
2012,12,04,20,49,1.60
2012,12,04,20,50,3.20
2012,12,04,20,51,4.80
2012,12,04,20,52,4.80
2012,12,04,20,53,3.20
2012,12,04,20,54,3.20